Wind_Speed
44 46 46 47 48 49 49 50 51 51 52 53 54 55 56 57 58 59 60 60 61 61 60 60 61 61 61 62 62 62 62 63 63 62 62 62 61 61 62 63 64 64 64
45 46 47 48 49 50 51 51 51 52 52 54 56 56 57 57 56 57 57 58 59 59 60 60 59 59 60 61 61 61 61 60 61 60 59 60 60 60 60 61 62 63 63
46 47 48 49 50 50 51 52 52 52 53 53 55 56 57 57 57 57 57 57 57 58 58 59 58 58 58 59 59 59 58 58 58 58 57 58 58 58 59 60 61 61 61
47 47 48 49 50 51 51 52 52 53 53 54 54 55 56 57 58 58 59 58 57 57 58 58 58 57 57 57 57 57 57 57 57 58 57 57 57 57 58 58 59 60 60
46 47 48 49 49 50 51 51 52 53 53 54 54 55 56 57 58 58 57 57 57 56 57 57 58 57 56 55 55 56 56 57 57 58 57 57 56 56 57 57 57 58 58
46 47 48 49 49 49 50 50 51 52 53 53 53 54 55 55 56 57 56 55 55 56 56 56 56 56 54 54 54 55 56 56 56 56 55 55 54 54 55 54 54 55 55
46 47 48 49 50 50 50 51 52 52 52 52 53 53 53 53 54 55 55 54 53 53 54 54 54 54 54 52 52 54 54 54 53 53 52 52 52 52 52 52 52 52 52
47 47 48 49 49 50 50 51 51 52 52 52 52 52 52 52 53 52 52 51 50 49 49 50 51 51 51 50 49 50 51 51 51 51 51 50 50 50 50 49 49 50 49
47 47 48 48 49 49 49 50 50 50 50 51 51 51 51 51 51 51 50 50 48 47 46 46 46 47 48 48 47 47 47 47 48 48 47 47 47 47 47 47 46 47 47
47 47 47 47 48 48 49 50 50 49 49 49 49 50 50 50 50 49 49 49 48 46 45 44 44 45 45 46 45 45 45 46 45 45 45 45 44 44 44 45 44 44 44
48 47 47 47 48 48 49 49 49 49 48 48 48 48 48 49 49 48 47 47 46 45 44 43 43 43 43 44 43 42 43 43 43 43 43 43 43 43 42 42 43 43 42
47 47 47 47 47 48 48 48 48 48 48 48 47 47 47 47 47 47 47 46 46 45 43 43 43 43 43 43 42 41 40 41 41 41 42 42 42 41 41 41 42 42 41
46 46 47 47 47 47 47 47 47 47 47 47 46 46 45 45 45 45 45 45 45 44 43 42 42 42 42 42 41 40 40 40 40 40 40 40 40 40 41 41 42 41 40
46 46 46 46 47 47 47 47 47 46 46 45 45 44 44 43 43 42 42 43 43 42 41 41 41 41 41 41 41 40 40 39 39 39 39 39 40 40 40 40 40 41 41
46 46 46 46 46 46 46 46 45 45 45 44 44 43 43 42 41 41 41 41 40 39 39 38 38 39 39 39 40 40 39 39 39 39 38 38 38 39 39 39 39 40 39
45 45 45 45 45 45 45 44 44 43 43 43 42 42 41 40 40 39 39 39 38 38 38 37 36 36 36 37 37 38 37 36 36 36 36 36 36 37 37 37 38 39 39
45 45 45 45 44 44 44 43 42 42 41 41 41 40 40 39 38 38 38 37 37 38 37 36 36 35 34 34 35 35 35 35 35 35 35 36 36 36 36 36 37 38 38
44 44 43 43 43 42 42 41 40 39 38 38 38 38 38 37 37 36 36 36 37 37 36 35 34 34 33 33 34 34 34 34 34 34 35 35 35 35 35 35 35 35 36
42 42 41 41 40 40 39 38 37 36 36 36 35 36 36 36 36 35 35 35 35 35 35 34 33 33 32 32 32 33 33 33 33 33 33 34 35 34 34 33 34 34 35
40 40 39 39 38 37 36 35 34 34 33 33 33 34 34 35 34 34 33 32 32 32 32 32 31 31 30 31 31 32 32 32 32 32 32 33 33 32 33 33 33 33 34
39 39 38 38 37 36 35 34 33 32 32 32 32 32 32 32 32 31 31 30 30 29 29 30 30 30 29 30 30 31 31 31 31 31 31 31 31 31 32 32 32 33 33
37 37 36 36 35 34 33 32 32 31 31 30 30 29 29 29 28 28 28 28 27 27 27 27 28 28 28 29 29 29 29 29 30 30 30 31 31 31 31 32 32 32 32
36 35 34 34 33 32 31 30 30 30 30 29 29 28 27 26 26 25 26 26 26 25 25 25 25 25 25 26 27 27 27 29 29 30 30 31 31 31 31 31 31 31 31
34 33 32 32 31 30 29 29 28 28 28 28 27 25 25 24 23 23 23 22 23 23 23 23 23 23 23 24 24 25 26 27 28 29 30 30 30 31 30 31 31 31 31
33 32 31 30 30 28 28 28 28 27 26 26 25 24 23 22 21 21 21 21 21 21 21 21 21 21 22 22 23 24 25 26 27 28 29 29 29 29 30 30 30 30 30
32 31 30 29 28 28 27 26 26 25 25 24 23 22 21 21 20 19 19 19 19 19 19 19 19 20 20 21 22 24 24 25 26 26 27 27 27 28 28 28 29 29 29
Wind_Direction
279 279 279 279 278 277 277 277 277 276 275 274 273 272 270 270 271 270 271 270 269 269 269 269 269 269 269 269 268 268 267 266 264 261 261 260 259 259 258 257 257 256 256
281 280 280 280 280 279 278 277 277 277 276 276 274 273 271 270 271 272 272 271 270 270 269 269 270 270 270 269 268 267 266 265 263 262 260 260 259 259 259 258 257 256 256
282 282 282 281 281 281 280 279 278 278 277 276 276 274 272 271 271 272 273 273 273 272 271 270 270 271 270 269 268 267 266 264 263 262 260 260 260 259 259 258 257 256 256
284 283 283 283 282 282 281 280 279 279 279 277 277 276 275 274 273 273 273 274 274 273 272 271 270 270 270 268 267 266 265 264 263 261 260 260 260 260 259 259 258 257 256
286 285 284 284 283 283 283 281 281 280 280 279 278 276 276 275 275 274 274 274 273 273 273 271 270 270 269 267 266 265 264 264 263 261 260 260 260 260 259 259 258 257 257
288 287 286 285 284 284 283 283 282 282 282 281 279 278 277 277 276 275 274 275 276 275 273 271 270 269 268 266 266 265 264 264 262 261 259 259 259 259 259 258 258 257 256
290 288 287 286 285 284 284 283 283 283 282 281 280 279 278 277 276 275 274 275 277 276 274 272 269 268 267 266 266 265 264 263 262 260 259 258 259 258 258 258 258 257 256
291 290 288 287 287 286 285 285 285 283 282 281 280 279 279 277 276 276 275 276 275 275 274 272 270 268 267 266 266 265 264 262 261 259 259 258 257 257 257 257 257 257 255
292 291 290 289 288 287 287 286 285 284 283 282 281 280 279 277 276 276 274 274 274 274 274 272 270 268 268 267 266 264 262 261 259 257 257 257 256 256 257 256 255 256 255
293 292 292 291 289 288 288 287 286 285 284 283 282 281 280 278 277 275 274 273 272 272 271 270 269 268 268 267 265 263 261 259 257 256 255 254 254 255 255 255 253 254 254
294 293 292 292 290 289 289 288 287 285 284 284 283 282 281 279 277 275 274 273 271 270 269 269 268 268 267 266 265 264 261 258 257 256 254 253 253 253 254 254 252 252 254
295 293 293 292 291 290 289 289 287 286 285 284 283 282 282 280 277 275 273 272 271 269 268 268 268 267 267 265 264 262 260 258 257 255 254 252 251 252 253 254 253 253 253
296 294 293 293 292 291 290 290 288 286 285 283 282 282 281 280 278 275 273 271 270 269 268 268 268 267 265 264 262 260 258 257 256 255 253 252 252 252 253 254 255 253 253
297 296 295 294 293 293 292 291 289 287 285 283 282 281 281 280 277 275 274 272 270 269 267 266 266 267 264 263 260 258 256 257 256 254 252 251 252 253 255 254 253 252 253
297 297 296 296 295 294 293 293 291 288 286 283 281 280 280 279 277 275 274 273 271 268 267 266 266 266 265 262 259 256 256 256 255 254 253 251 251 252 252 252 252 252 252
297 297 297 296 295 295 294 293 292 289 286 284 282 281 280 279 276 274 273 272 271 269 268 267 266 265 264 261 258 256 255 254 253 252 252 251 250 251 250 251 252 251 251
299 298 298 297 296 296 295 294 292 290 287 285 283 281 281 279 277 274 273 271 269 268 267 266 264 262 261 260 258 256 253 253 252 251 251 249 249 250 249 250 250 250 250
300 300 300 299 298 297 296 295 292 290 288 286 284 282 281 280 278 276 274 271 268 266 264 263 261 260 258 258 256 255 252 251 251 250 252 252 251 251 249 249 249 249 248
302 302 301 301 300 300 298 297 294 291 289 287 285 282 281 280 278 277 274 271 267 264 263 261 259 257 257 257 255 253 251 249 250 250 251 252 251 250 249 248 248 248 248
304 304 303 303 302 302 301 299 297 294 291 289 287 285 282 280 277 276 274 270 266 263 261 260 257 255 255 254 253 251 250 249 249 248 249 249 249 249 249 248 248 248 248
305 305 303 303 303 302 301 300 298 296 294 292 289 287 284 281 277 275 272 268 265 262 260 259 256 253 253 252 252 250 249 248 247 246 246 246 246 247 247 247 247 247 248
307 306 305 304 304 303 302 301 300 298 296 294 291 288 285 282 279 275 270 266 264 262 260 257 254 253 253 252 251 249 247 247 246 246 246 246 246 246 246 245 245 246 246
308 307 307 306 305 305 304 303 301 299 298 296 293 289 285 282 277 273 270 266 263 261 259 256 254 254 254 251 249 248 248 247 247 247 248 248 248 247 246 245 245 245 245
309 308 307 307 307 305 305 304 302 301 299 297 294 290 286 281 276 272 269 265 262 259 256 254 254 253 252 249 248 247 248 248 248 248 249 249 248 247 246 245 244 243 242
310 309 309 308 307 307 305 304 303 303 301 299 295 292 286 280 274 270 266 262 259 257 256 254 252 251 250 249 249 247 247 248 249 249 249 248 247 247 245 243 241 242 242
310 310 310 309 307 306 306 305 304 303 302 300 297 294 288 280 274 270 266 262 259 257 255 253 252 251 250 250 249 248 248 248 248 248 247 245 244 243 240 238 238 240 241
Height
5602 5599 5596 5593 5591 5588 5586 5584 5582 5580 5578 5576 5575 5574 5573 5572 5571 5570 5570 5569 5568 5568 5567 5567 5566 5565 5565 5564 5564 5564 5564 5565 5568 5573 5573 5574 5575 5576 5578 5580 5582 5585 5588
5590 5587 5583 5580 5577 5575 5572 5570 5568 5565 5563 5561 5559 5558 5557 5555 5554 5553 5552 5551 5550 5550 5549 5548 5548 5547 5546 5545 5545 5546 5546 5547 5548 5552 5555 5555 5557 5558 5559 5561 5564 5566 5569
5577 5574 5570 5567 5564 5561 5558 5556 5553 5551 5548 5546 5544 5542 5540 5539 5538 5536 5535 5534 5533 5532 5531 5530 5530 5529 5528 5527 5527 5528 5528 5529 5530 5533 5536 5538 5539 5540 5541 5543 5545 5548 5550
5565 5561 5557 5554 5550 5547 5544 5541 5538 5535 5533 5530 5528 5526 5524 5523 5521 5519 5518 5517 5516 5515 5513 5513 5512 5511 5510 5510 5510 5510 5511 5512 5513 5515 5518 5521 5522 5523 5524 5526 5528 5530 5532
5552 5548 5544 5540 5536 5533 5530 5526 5523 5520 5518 5515 5512 5510 5508 5506 5504 5502 5501 5500 5499 5498 5496 5495 5494 5493 5492 5492 5492 5493 5493 5494 5496 5498 5500 5503 5505 5505 5507 5508 5510 5513 5515
5539 5535 5531 5527 5523 5519 5515 5512 5508 5505 5502 5499 5497 5494 5492 5490 5488 5485 5484 5483 5481 5480 5479 5477 5476 5476 5475 5475 5475 5476 5476 5477 5479 5481 5483 5486 5488 5489 5490 5491 5493 5496 5499
5526 5522 5517 5513 5509 5505 5501 5497 5494 5490 5487 5484 5481 5478 5476 5474 5471 5469 5467 5466 5465 5463 5461 5460 5459 5459 5458 5458 5459 5459 5459 5460 5462 5464 5467 5470 5472 5474 5474 5476 5477 5479 5483
5513 5508 5503 5499 5495 5491 5487 5483 5479 5475 5472 5469 5466 5463 5460 5458 5455 5453 5451 5449 5449 5447 5445 5444 5443 5443 5442 5442 5443 5443 5444 5446 5447 5449 5452 5455 5456 5457 5459 5460 5462 5464 5467
5499 5494 5490 5485 5481 5477 5472 5468 5464 5461 5457 5454 5450 5447 5445 5443 5440 5437 5435 5434 5433 5432 5431 5429 5428 5428 5428 5427 5428 5429 5430 5432 5433 5435 5437 5439 5441 5443 5444 5446 5448 5450 5453
5486 5481 5476 5471 5467 5462 5458 5454 5450 5446 5443 5439 5436 5432 5429 5427 5425 5422 5420 5419 5419 5418 5417 5416 5415 5414 5414 5413 5413 5415 5416 5418 5419 5422 5424 5426 5428 5430 5431 5433 5435 5437 5439
5472 5467 5462 5457 5453 5448 5444 5440 5435 5432 5428 5425 5422 5419 5415 5412 5410 5408 5406 5404 5404 5403 5403 5402 5402 5401 5401 5400 5401 5402 5403 5404 5406 5408 5411 5413 5415 5417 5419 5421 5423 5425 5428
5459 5454 5449 5444 5439 5434 5430 5425 5421 5417 5414 5411 5408 5405 5401 5398 5395 5393 5392 5390 5389 5389 5389 5389 5388 5388 5388 5388 5388 5389 5390 5391 5393 5395 5398 5401 5403 5405 5407 5409 5411 5413 5416
5446 5441 5435 5430 5426 5421 5416 5411 5407 5403 5400 5396 5393 5391 5388 5385 5382 5380 5378 5377 5376 5376 5376 5375 5375 5374 5374 5375 5376 5377 5378 5379 5381 5383 5386 5389 5391 5394 5396 5398 5399 5402 5404
5433 5428 5422 5417 5412 5407 5402 5397 5393 5389 5385 5382 5379 5377 5374 5372 5369 5366 5365 5364 5363 5363 5363 5362 5362 5361 5361 5362 5363 5364 5366 5368 5370 5372 5375 5377 5380 5382 5384 5386 5388 5390 5392
5420 5415 5410 5404 5399 5394 5389 5384 5379 5375 5371 5368 5365 5363 5361 5359 5356 5354 5352 5351 5351 5351 5350 5350 5350 5350 5350 5350 5351 5353 5354 5356 5358 5361 5363 5366 5368 5370 5372 5374 5377 5379 5381
5408 5402 5397 5391 5386 5381 5376 5371 5366 5362 5358 5354 5351 5349 5347 5345 5343 5341 5340 5339 5338 5338 5338 5338 5338 5339 5339 5340 5341 5342 5344 5346 5348 5350 5353 5355 5357 5359 5361 5363 5365 5368 5370
5395 5389 5384 5378 5373 5368 5363 5358 5354 5349 5345 5341 5338 5336 5334 5332 5330 5329 5328 5327 5327 5327 5327 5327 5328 5328 5329 5330 5331 5333 5335 5337 5339 5341 5343 5345 5347 5349 5351 5353 5355 5357 5359
5382 5377 5371 5366 5360 5355 5350 5345 5341 5337 5334 5330 5327 5324 5322 5320 5319 5317 5316 5316 5316 5315 5316 5316 5317 5318 5319 5320 5321 5323 5325 5327 5329 5331 5333 5334 5336 5338 5340 5342 5344 5346 5348
5370 5365 5359 5354 5348 5343 5338 5333 5329 5325 5322 5319 5316 5313 5311 5309 5307 5306 5304 5304 5304 5304 5305 5306 5307 5308 5309 5310 5312 5314 5315 5317 5319 5321 5323 5325 5327 5329 5331 5333 5334 5336 5338
5359 5354 5348 5343 5337 5332 5327 5322 5318 5314 5311 5308 5305 5302 5300 5298 5297 5295 5294 5293 5293 5294 5294 5295 5297 5298 5299 5301 5302 5304 5306 5308 5310 5312 5314 5316 5318 5320 5322 5324 5325 5327 5328
5349 5343 5338 5332 5327 5322 5317 5312 5308 5304 5301 5298 5295 5292 5289 5288 5286 5285 5284 5284 5284 5284 5285 5286 5287 5289 5290 5292 5293 5295 5297 5299 5300 5302 5305 5307 5309 5311 5313 5314 5316 5318 5319
5338 5333 5327 5322 5317 5312 5308 5303 5299 5295 5291 5288 5285 5283 5280 5278 5276 5275 5275 5275 5275 5276 5276 5277 5278 5280 5281 5283 5285 5286 5288 5290 5292 5294 5296 5298 5300 5302 5303 5305 5307 5309 5310
5328 5323 5318 5313 5308 5303 5299 5294 5290 5286 5283 5279 5276 5273 5271 5269 5267 5267 5266 5266 5267 5267 5268 5269 5270 5272 5273 5274 5276 5278 5280 5281 5283 5286 5288 5290 5291 5293 5294 5296 5298 5300 5302
5319 5314 5309 5304 5299 5295 5290 5286 5282 5278 5274 5271 5268 5265 5263 5261 5260 5259 5258 5259 5259 5260 5261 5262 5263 5264 5265 5267 5268 5270 5271 5273 5275 5277 5279 5281 5282 5284 5286 5288 5290 5292 5294
5310 5305 5300 5295 5291 5287 5282 5278 5274 5270 5266 5263 5260 5257 5255 5253 5252 5252 5251 5252 5252 5253 5253 5254 5256 5257 5259 5260 5261 5262 5264 5265 5267 5268 5270 5272 5274 5275 5277 5279 5282 5284 5287
5301 5297 5292 5287 5283 5279 5275 5271 5267 5263 5259 5256 5253 5250 5248 5247 5246 5245 5245 5245 5246 5246 5247 5248 5249 5250 5252 5253 5254 5255 5256 5258 5259 5260 5262 5264 5265 5268 5270 5272 5274 5277 5279